Temperature
21 20 20 21 20 20 20 20 20 20 20 20 20 19 19 19 20 20 20 20 20 19 19 19 19 19 19 19 19 19 19 19 19 19 19 19 19 18 18 18 17 17 17
22 21 21 21 21 20 20 20 20 20 20 20 20 20 19 20 20 20 20 20 20 20 20 20 20 20 20 20 20 20 20 20 19 19 19 19 18 18 18 18 18 17 17
22 21 21 21 21 21 21 21 21 20 20 20 20 20 20 20 20 20 20 20 20 20 20 20 20 20 20 20 20 20 20 20 20 19 19 18 18 19 19 19 18 18 18
22 21 21 21 21 21 21 21 20 20 20 20 20 20 20 20 20 20 20 20 20 20 20 20 20 20 20 20 20 20 20 20 20 19 19 19 18 18 19 19 19 19 18
22 21 21 21 21 21 21 21 20 20 20 20 20 20 20 20 20 20 20 20 20 20 19 19 20 20 20 20 20 20 19 19 19 19 19 19 19 19 18 18 18 19 19
22 22 21 21 21 21 21 20 20 20 20 20 20 20 20 20 20 20 20 20 20 19 19 19 19 19 19 19 19 19 19 19 19 19 18 18 18 18 18 18 18 18 18
22 22 21 21 21 21 21 20 20 20 20 20 20 20 20 20 20 20 20 20 20 20 20 19 19 19 19 19 19 19 19 19 19 18 18 18 18 18 18 18 18 18 17
22 22 21 21 21 21 21 20 20 20 20 20 20 20 20 20 20 19 19 19 19 20 19 19 19 19 19 19 19 19 18 18 18 18 18 18 18 18 18 18 18 17 17
21 21 21 21 21 21 21 20 20 20 20 20 20 20 20 20 19 19 19 19 19 19 19 19 19 19 19 19 19 18 18 18 18 18 18 18 18 18 17 17 17 18 17
21 21 21 21 20 20 20 20 20 20 19 19 20 20 20 20 20 20 19 19 19 19 19 19 19 19 19 19 18 18 18 18 18 18 18 18 18 18 17 17 17 17 18
21 21 21 20 20 20 20 20 19 19 19 19 19 19 19 20 20 20 20 19 19 19 19 19 19 18 18 18 18 18 18 18 18 18 18 18 18 17 18 18 18 18 18
21 21 21 21 21 20 20 20 19 19 19 19 19 19 19 19 19 19 19 19 19 19 19 19 18 18 18 18 18 18 18 18 18 18 18 18 18 18 18 18 18 18 18
21 21 21 21 21 21 20 20 20 20 19 19 19 19 19 19 19 19 19 19 19 19 19 18 18 18 18 18 18 18 18 18 18 18 19 18 18 18 18 18 18 18 18
21 21 21 21 20 20 20 20 20 20 20 20 20 20 19 19 19 19 19 19 19 18 18 18 18 18 18 18 18 18 18 18 18 18 18 18 18 18 18 18 18 18 18
22 21 21 20 20 20 20 20 20 20 20 20 20 19 19 19 19 19 18 18 18 18 18 18 18 18 18 18 18 18 18 18 18 18 18 18 18 18 18 18 18 18 18
22 21 21 21 20 20 20 20 20 20 19 19 19 19 18 18 18 18 18 18 18 18 18 18 18 18 18 18 18 18 18 18 18 18 18 19 19 19 19 19 18 18 18
22 21 21 20 20 20 19 19 19 19 19 18 18 18 18 18 18 18 18 18 18 18 18 18 18 18 18 18 18 18 18 18 18 18 19 19 19 19 19 19 19 19 19
22 21 21 20 20 19 19 19 19 19 18 18 18 18 18 18 18 18 18 18 18 18 18 18 18 18 18 18 18 18 18 18 18 18 18 18 19 19 19 19 19 19 19
21 21 20 20 19 19 19 19 18 18 18 18 17 17 17 17 17 17 17 17 17 17 17 17 17 18 18 18 18 18 18 18 18 18 18 18 18 18 18 19 19 19 19
21 20 20 20 19 19 19 19 18 18 18 18 18 18 17 17 17 17 17 17 16 16 17 17 17 17 17 17 17 17 18 18 18 18 18 18 18 18 18 18 19 19 19
21 21 20 20 20 19 19 19 19 19 18 18 18 17 17 17 17 17 16 16 16 16 16 16 16 17 17 17 17 17 17 17 17 18 18 18 18 18 18 19 19 19 19
22 21 21 21 20 20 20 19 19 18 18 18 17 17 16 16 16 16 16 16 16 16 16 16 16 16 16 16 16 16 16 17 17 18 18 18 18 18 18 18 18 18 18
22 22 22 21 21 20 20 19 19 18 18 17 17 16 16 16 16 16 16 16 16 16 16 16 16 16 16 16 16 16 15 16 16 17 17 17 17 17 18 18 18 17 17
22 22 21 21 20 20 19 19 18 18 17 17 16 16 15 15 15 15 15 16 16 16 16 16 16 15 15 15 15 16 15 15 15 15 16 16 16 16 16 16 17 17 17
22 21 21 21 20 20 19 19 18 18 17 16 16 15 15 15 15 15 15 15 15 15 15 15 15 15 15 15 15 15 15 15 15 14 14 15 16 16 16 16 16 16 16
21 21 21 20 20 20 19 18 18 17 16 16 15 15 15 15 15 15 14 14 14 14 14 14 14 14 14 15 15 15 15 14 14 14 14 15 15 15 15 15 15 15 15
Wind_Speed
8 13 23 22 20 19 18 17 17 17 17 17 17 16 15 14 14 13 12 11 10 10 10 10 9 9 9 9 9 10 11 11 11 10 11 12 13 12 12 12 12 11 13
13 17 23 22 20 19 18 17 17 17 16 16 15 14 14 13 12 12 12 11 10 9 9 9 9 8 8 8 8 9 9 8 10 9 9 10 10 10 11 11 11 10 13
13 16 21 21 20 19 18 17 17 17 17 16 15 14 13 12 11 11 10 9 9 8 8 8 8 8 7 7 7 8 7 7 7 8 8 6 6 7 9 11 11 12 12
14 15 17 20 19 18 18 17 18 18 17 16 15 13 12 11 11 10 9 9 7 6 6 6 6 6 6 6 6 6 6 6 6 7 5 4 4 5 8 12 12 12 12
11 14 18 20 18 18 18 18 18 18 17 17 15 14 12 11 10 9 9 8 7 6 5 5 4 4 5 5 6 6 6 6 6 6 5 5 4 5 8 11 12 12 12
11 13 18 21 19 18 17 17 17 16 15 15 14 13 12 10 9 9 8 8 7 6 6 5 5 5 5 5 6 6 6 6 6 5 4 5 6 8 10 12 12 13 12
11 11 16 21 19 17 16 16 15 15 14 12 12 11 10 9 9 9 9 9 8 8 8 7 8 7 7 7 7 7 7 8 7 6 6 7 7 9 13 16 15 14 14
11 10 13 20 19 17 16 15 14 14 13 12 11 10 10 9 9 9 10 10 10 10 10 10 10 10 10 10 9 9 9 9 8 7 7 8 9 10 13 17 18 17 17
10 8 9 14 16 16 15 14 13 13 12 12 11 11 10 10 9 10 10 11 11 12 12 12 13 13 12 12 11 11 11 11 10 8 8 8 10 11 12 15 19 20 19
10 8 5 8 11 12 13 14 13 13 12 12 12 12 11 11 11 11 12 12 13 13 14 14 15 15 14 13 13 13 14 13 12 11 10 10 12 13 14 15 19 21 21
10 7 6 6 7 9 10 12 14 14 14 13 13 13 13 11 11 10 12 13 14 15 15 16 17 17 16 14 15 15 15 12 11 11 11 13 14 15 16 17 19 22 23
12 11 8 9 8 9 11 11 11 11 12 13 12 12 11 11 11 12 12 15 15 16 17 18 19 18 17 13 14 15 13 13 13 13 13 16 17 17 18 19 20 21 23
12 12 11 10 8 9 7 8 8 9 10 12 13 13 11 10 10 11 10 12 13 15 14 16 17 15 15 13 12 12 13 13 12 13 15 17 18 19 19 20 21 21 22
10 12 11 10 8 7 7 6 6 6 7 8 11 12 10 7 7 8 9 10 11 11 11 12 11 13 14 15 14 14 14 12 13 13 15 19 20 20 20 20 21 21 21
10 11 9 9 10 8 7 5 5 6 7 8 9 10 11 8 8 8 9 10 11 12 10 9 10 10 10 12 13 13 12 13 14 14 14 19 20 21 21 20 21 21 21
10 10 8 9 9 8 8 8 6 6 7 8 10 13 14 13 9 9 9 7 9 12 13 11 8 10 10 8 10 10 12 13 14 15 15 17 20 21 22 22 22 22 22
9 8 7 7 7 7 7 6 4 5 6 6 9 13 15 14 12 9 9 9 9 12 13 11 11 9 9 8 10 11 9 11 12 14 15 15 16 18 21 22 23 24 24
6 6 6 7 7 8 7 7 5 6 7 7 9 11 14 15 15 9 9 10 10 11 9 9 9 9 9 9 9 9 9 9 12 12 13 14 15 15 17 20 22 23 24
7 7 6 6 7 8 8 6 5 4 5 6 6 7 9 10 12 8 8 9 9 8 8 9 9 8 9 10 10 9 8 9 10 11 11 13 15 16 17 18 20 22 24
6 6 6 5 5 5 4 4 3 4 4 4 4 5 6 6 7 6 6 8 7 7 7 8 10 9 8 8 9 9 8 9 9 10 12 11 13 16 17 17 17 17 20
5 6 6 6 5 4 2 2 2 3 3 3 3 4 5 6 7 5 5 6 6 6 8 9 8 9 8 5 4 6 7 10 11 11 11 11 12 13 14 14 14 15 15
5 6 6 6 5 5 3 2 2 2 2 3 3 4 5 6 6 5 6 7 7 7 8 9 8 6 5 5 5 4 4 4 6 8 9 9 10 9 10 11 12 13 15
7 8 6 7 6 4 3 1 0 1 2 2 3 3 3 5 6 5 7 8 8 8 8 9 9 9 8 7 8 6 5 6 3 3 4 5 6 6 6 7 9 11 13
9 6 6 5 4 3 3 3 3 2 3 3 2 4 6 6 6 7 7 8 9 8 9 10 10 9 9 8 7 9 8 5 4 3 2 3 4 5 5 5 6 6 6
5 4 4 3 3 3 3 4 4 4 3 2 3 5 6 7 8 8 8 9 9 9 10 11 10 10 9 10 8 6 9 8 8 7 5 3 2 2 3 4 4 3 2
4 4 4 4 5 4 5 5 6 6 4 3 4 5 5 6 7 8 9 9 9 9 10 11 11 12 11 12 10 8 7 5 6 8 9 6 3 1 2 3 3 1 1
Wind_Direction
161 161 162 160 157 152 145 140 136 132 130 130 130 133 135 137 137 136 135 133 127 121 117 116 116 117 116 114 111 109 111 119 121 121 124 127 127 124 122 124 126 128 130
153 160 163 161 158 153 148 144 139 136 135 135 135 137 139 140 140 138 137 137 134 128 123 122 121 121 121 121 120 118 118 120 127 131 138 138 136 134 133 134 137 140 138
145 159 163 161 159 155 153 150 146 144 144 143 142 142 143 144 144 142 140 141 142 140 136 134 132 130 129 129 129 130 130 129 134 144 142 135 145 156 163 152 152 147 146
147 156 160 162 160 159 158 157 155 154 152 151 150 149 148 148 149 150 150 150 153 153 152 151 149 146 146 148 149 151 153 154 159 155 147 160 175 167 168 163 164 161 157
146 155 162 165 165 165 166 165 164 163 160 158 157 157 158 159 160 162 163 164 169 174 177 177 176 174 173 176 179 182 185 185 188 180 177 189 209 199 182 176 175 176 172
149 156 167 169 172 173 174 173 172 170 168 166 165 166 168 172 177 178 178 181 187 196 205 211 215 218 219 218 217 215 215 217 214 201 207 214 222 226 212 199 193 189 185
154 157 171 172 176 179 180 180 180 178 176 176 176 178 181 187 194 197 197 199 203 210 219 227 233 237 242 245 244 242 242 241 233 219 227 237 247 248 230 212 206 202 198
157 157 174 176 180 183 185 188 188 186 186 186 188 192 198 204 212 216 215 216 219 222 227 234 239 244 248 251 254 255 258 253 252 238 234 238 251 261 247 221 211 210 208
155 154 174 179 185 189 192 196 199 198 197 197 199 205 212 218 225 231 230 230 233 236 239 242 246 249 251 251 256 261 264 264 262 255 253 244 249 260 259 237 220 216 216
156 156 157 171 184 193 200 206 210 212 212 212 213 217 223 228 233 238 237 236 242 247 251 254 255 257 255 252 256 261 264 267 265 264 260 255 252 255 260 254 237 227 224
166 163 159 164 178 187 197 211 216 218 220 223 225 228 231 235 241 246 247 244 248 255 260 262 262 263 262 259 260 262 266 263 263 265 262 260 258 257 256 256 252 242 234
181 184 179 180 182 186 198 205 212 215 218 221 222 229 235 234 238 246 250 252 254 258 263 265 265 266 265 259 259 262 261 260 262 264 262 260 260 259 258 256 255 253 245
186 190 194 194 190 189 193 192 202 210 216 220 220 221 227 236 243 250 251 254 257 262 264 265 263 258 254 250 249 250 253 257 260 263 263 262 260 259 260 259 257 258 254
185 199 199 196 195 198 199 200 204 209 217 222 223 221 221 231 241 246 248 249 249 252 255 258 259 256 255 252 248 251 254 254 256 258 261 263 264 263 262 261 262 264 264
196 207 205 199 202 201 203 210 213 219 225 230 231 228 224 230 241 242 245 245 246 247 248 252 253 252 252 253 251 248 251 253 255 255 258 263 266 266 263 261 261 264 265
206 211 206 203 207 205 213 220 224 227 231 234 237 237 232 233 238 239 242 242 245 245 246 249 250 254 254 251 253 250 250 250 252 253 254 261 264 264 261 260 261 260 260
210 214 209 209 207 209 221 234 234 233 234 236 244 246 244 241 243 244 244 244 244 246 246 247 248 246 250 251 255 255 254 250 249 251 254 257 263 264 260 259 259 258 256
192 196 203 211 203 210 214 220 227 232 236 245 250 253 253 251 250 250 251 251 249 246 244 248 248 244 243 241 246 250 248 249 250 251 253 256 260 264 264 260 257 257 256
165 166 170 188 198 209 214 216 222 234 241 250 258 261 265 266 263 251 255 261 261 255 249 247 246 238 242 242 241 245 246 249 251 253 253 254 255 257 260 262 259 256 257
147 152 158 171 188 193 194 201 214 234 242 240 242 253 267 276 282 272 264 268 269 265 259 249 248 240 239 240 245 250 248 248 249 249 252 254 254 256 257 258 260 259 256
147 158 169 179 184 169 165 188 213 246 257 267 266 273 288 294 296 287 279 278 270 260 258 253 249 247 244 227 232 261 259 248 247 249 248 250 253 255 257 258 258 258 257
187 190 196 202 203 199 187 187 198 227 266 285 300 306 305 306 304 301 289 285 277 266 261 256 244 243 237 201 205 230 271 280 246 243 244 246 253 259 263 264 260 255 252
216 213 209 215 218 218 205 164 52 358 334 321 319 315 313 313 305 296 293 289 284 273 265 256 243 237 241 221 206 206 218 237 275 268 247 246 252 259 266 271 267 261 252
227 229 231 233 236 233 196 196 207 227 261 267 284 293 307 313 313 308 299 295 288 280 270 263 252 240 237 235 220 220 223 209 223 270 273 254 252 254 268 276 276 270 249
240 246 245 246 256 247 213 203 204 218 228 257 278 296 306 314 314 310 306 302 295 286 276 269 261 247 237 234 224 215 225 226 223 233 258 258 267 269 295 303 291 275 245
262 246 231 225 240 228 208 198 196 206 217 251 286 302 309 312 308 307 311 305 298 290 281 272 263 253 243 238 233 218 208 208 211 218 233 242 251 289 348 359 346 338 60
Height
1508 1512 1515 1518 1521 1524 1527 1530 1532 1534 1536 1538 1540 1541 1543 1544 1545 1547 1547 1548 1549 1549 1550 1551 1552 1552 1553 1554 1554 1554 1555 1555 1555 1556 1556 1556 1556 1557 1557 1558 1558 1559 1559
1508 1512 1515 1519 1522 1526 1529 1531 1533 1536 1538 1540 1541 1543 1545 1546 1547 1548 1549 1550 1551 1551 1552 1553 1553 1554 1554 1555 1555 1556 1556 1557 1557 1557 1558 1558 1559 1559 1559 1559 1560 1560 1560
1509 1513 1517 1520 1524 1527 1530 1532 1535 1537 1539 1541 1543 1544 1546 1547 1548 1549 1551 1551 1552 1553 1553 1554 1554 1555 1556 1556 1557 1557 1558 1558 1558 1559 1559 1560 1560 1561 1561 1561 1561 1561 1562
1511 1515 1518 1522 1525 1528 1531 1534 1535 1537 1539 1541 1543 1545 1546 1548 1549 1550 1551 1552 1553 1554 1554 1555 1556 1556 1557 1557 1558 1558 1558 1559 1559 1559 1560 1560 1561 1562 1562 1562 1563 1563 1563
1513 1517 1520 1523 1526 1529 1531 1534 1536 1538 1540 1542 1543 1545 1547 1548 1549 1550 1551 1552 1553 1554 1555 1556 1556 1557 1558 1558 1558 1558 1558 1559 1559 1559 1560 1561 1561 1562 1562 1563 1563 1563 1564
1514 1518 1521 1524 1527 1529 1532 1535 1537 1540 1542 1543 1545 1546 1547 1548 1549 1550 1551 1552 1553 1554 1555 1555 1556 1557 1558 1558 1558 1558 1558 1558 1558 1559 1559 1560 1561 1561 1562 1562 1563 1563 1564
1515 1519 1522 1525 1528 1530 1533 1536 1538 1541 1543 1544 1546 1547 1548 1548 1549 1550 1550 1551 1552 1553 1554 1555 1555 1556 1557 1557 1557 1557 1558 1558 1558 1558 1558 1558 1559 1559 1560 1561 1561 1562 1563
1517 1520 1523 1526 1529 1531 1534 1536 1539 1541 1543 1544 1546 1547 1548 1548 1549 1549 1550 1550 1551 1552 1553 1554 1554 1555 1555 1556 1556 1556 1557 1557 1556 1556 1556 1556 1557 1557 1558 1559 1559 1559 1560
1518 1521 1523 1526 1529 1532 1534 1536 1538 1541 1543 1544 1545 1546 1547 1548 1548 1549 1549 1550 1550 1551 1551 1552 1553 1553 1554 1554 1554 1555 1554 1554 1554 1554 1554 1554 1554 1554 1555 1556 1557 1557 1557
1518 1521 1523 1526 1529 1531 1534 1536 1538 1540 1541 1543 1544 1545 1546 1547 1547 1548 1548 1549 1549 1550 1550 1550 1551 1551 1552 1552 1552 1552 1552 1551 1551 1551 1551 1551 1551 1551 1552 1553 1554 1555 1555
1517 1520 1523 1526 1528 1531 1533 1535 1536 1538 1540 1541 1542 1543 1544 1545 1546 1546 1547 1548 1548 1548 1548 1548 1548 1549 1549 1549 1549 1549 1548 1548 1548 1548 1548 1548 1548 1548 1548 1549 1550 1552 1552
1516 1519 1522 1525 1527 1530 1531 1533 1534 1536 1537 1538 1540 1541 1542 1543 1544 1544 1545 1545 1546 1546 1546 1546 1546 1546 1546 1545 1545 1545 1545 1545 1544 1544 1544 1545 1545 1544 1544 1545 1546 1547 1548
1516 1518 1520 1523 1525 1527 1528 1530 1532 1533 1534 1536 1537 1538 1539 1540 1541 1542 1542 1543 1543 1543 1543 1544 1544 1543 1543 1543 1543 1542 1542 1542 1541 1541 1541 1542 1542 1542 1541 1542 1542 1543 1544
1515 1518 1520 1522 1523 1525 1526 1527 1529 1531 1532 1533 1534 1535 1536 1537 1538 1539 1539 1539 1540 1540 1540 1541 1541 1540 1540 1540 1540 1539 1539 1539 1538 1538 1538 1538 1538 1538 1538 1538 1538 1539 1540
1517 1519 1520 1522 1523 1524 1525 1526 1527 1528 1529 1530 1531 1532 1533 1534 1534 1535 1535 1535 1536 1536 1536 1537 1537 1537 1537 1536 1536 1536 1536 1536 1535 1535 1534 1534 1534 1534 1534 1534 1535 1535 1536
1517 1519 1521 1521 1523 1523 1524 1525 1525 1526 1527 1527 1528 1529 1530 1530 1530 1530 1531 1531 1531 1531 1531 1532 1532 1532 1532 1532 1531 1531 1531 1531 1531 1531 1530 1530 1530 1530 1530 1530 1530 1531 1531
1517 1518 1520 1521 1522 1522 1522 1523 1523 1524 1524 1525 1525 1526 1526 1526 1526 1525 1525 1525 1525 1525 1525 1525 1525 1525 1525 1525 1525 1525 1525 1526 1525 1525 1525 1525 1525 1525 1525 1525 1526 1526 1527
1515 1517 1518 1520 1520 1521 1521 1521 1521 1521 1521 1522 1522 1522 1521 1521 1521 1520 1520 1519 1519 1519 1519 1518 1518 1518 1518 1518 1518 1518 1519 1519 1519 1519 1519 1519 1519 1519 1520 1520 1520 1521 1521
1514 1516 1517 1518 1519 1519 1519 1519 1518 1518 1518 1518 1518 1517 1517 1516 1515 1514 1512 1512 1512 1511 1510 1510 1510 1510 1510 1511 1512 1512 1512 1512 1512 1512 1512 1512 1513 1513 1513 1513 1514 1514 1515
1513 1514 1515 1516 1517 1517 1517 1516 1516 1516 1516 1515 1515 1514 1513 1511 1510 1508 1507 1506 1505 1504 1503 1503 1503 1503 1503 1503 1504 1504 1504 1504 1504 1504 1504 1505 1505 1505 1505 1505 1505 1506 1506
1513 1513 1514 1515 1515 1515 1515 1514 1514 1514 1513 1512 1511 1510 1508 1507 1505 1503 1501 1500 1499 1497 1497 1496 1496 1495 1495 1496 1496 1496 1496 1496 1496 1496 1497 1497 1498 1498 1497 1497 1496 1496 1497
1512 1512 1513 1513 1514 1514 1514 1513 1512 1512 1510 1509 1508 1506 1504 1502 1500 1498 1496 1494 1493 1491 1490 1489 1489 1488 1488 1489 1490 1490 1489 1489 1488 1489 1490 1490 1490 1490 1490 1489 1488 1488 1488
1510 1511 1512 1512 1512 1512 1512 1511 1510 1508 1507 1506 1504 1502 1500 1497 1494 1492 1489 1487 1485 1484 1482 1481 1481 1481 1480 1481 1482 1484 1483 1481 1482 1481 1482 1483 1483 1484 1483 1482 1481 1480 1480
1509 1510 1510 1510 1511 1510 1509 1508 1507 1505 1503 1502 1499 1497 1494 1491 1488 1485 1482 1480 1477 1475 1473 1472 1472 1472 1472 1473 1474 1475 1476 1477 1478 1476 1476 1477 1478 1478 1477 1476 1475 1474 1474
1507 1508 1508 1508 1508 1508 1506 1505 1503 1501 1500 1498 1495 1492 1489 1486 1483 1479 1475 1472 1469 1466 1464 1463 1463 1463 1464 1464 1466 1467 1468 1469 1470 1471 1470 1471 1473 1473 1472 1471 1470 1470 1470
1504 1505 1505 1505 1505 1504 1503 1501 1499 1497 1496 1494 1491 1487 1484 1480 1477 1473 1468 1465 1462 1459 1456 1455 1454 1454 1455 1456 1457 1459 1460 1461 1461 1463 1464 1466 1467 1468 1467 1467 1466 1466 1466